GW5460 Weather Reports


time (UTC)temp
F
wind
direction
speed
knots
gust
knots
rain 1hr
in
rain 24hr
in
rain mn
in
humidity
%
barometer
mb
20260503184517 80 324 0.9 2.6 0.00 0.00 0.00 46 1011.0
20260503183518 80 345 0.9 2.6 0.00 0.00 0.00 45 1011.1
20260503182516 79 326 0.9 4.3 0.00 0.00 0.00 47 1011.2
20260503181519 78 343 1.7 2.6 0.00 0.02 0.00 48 1011.3
20260503180538 77 332 0.9 4.3 0.00 0.02 0.00 49 1011.4
20260503175518 76 340 1.7 3.5 0.00 0.02 0.00 51 1011.4
20260503174517 75 335 1.7 3.5 0.00 0.02 0.00 52 1011.5
20260503173538 74 332 0.9 2.6 0.00 0.02 0.00 53 1011.6
20260503172518 73 323 0.9 2.6 0.00 0.02 0.00 56 1011.6
20260503171517 73 347 0.9 2.6 0.00 0.02 0.00 59 1011.6
20260503170520 71 343 0.9 2.6 0.00 0.02 0.00 62 1011.7
20260503150519 59 160 0.0 2.6 0.00 0.02 0.00 90 1012.0
20260503130517 53 228 0.0 0.9 0.00 0.02 0.00 99 1011.6
20260503110518 55 222 0.0 1.7 0.00 0.02 0.00 100 1011.9
20260503081519 58 222 0.0 0.9 0.00 0.03 0.00 92 1012.4
20260503080519 59 185 0.0 0.9 0.00 0.03 0.00 91 1012.4
20260503072540 59 219 0.9 3.5 0.00 0.03 0.00 91 1012.4
20260503071518 59 217 0.9 2.6 0.00 0.03 0.00 90 1012.5
20260503070517 59 223 0.9 2.6 0.00 0.03 0.00 89 1012.5
20260503054518 60 215 0.9 2.6 0.00 0.03 0.03 88 1012.7
20260503053539 60 206 0.0 2.6 0.00 0.03 0.03 87 1012.6
20260503052518 60 216 1.7 2.6 0.00 0.03 0.03 87 1012.6
20260503051518 61 181 0.0 0.9 0.00 0.03 0.03 86 1012.6
20260503050520 61 146 0.0 1.7 0.00 0.03 0.03 85 1012.4
20260503045519 61 224 0.0 1.7 0.00 0.03 0.03 84 1012.4
20260503044519 61 137 0.0 0.9 0.00 0.03 0.03 84 1012.4
20260503043520 61 186 0.0 0.9 0.00 0.03 0.03 84 1012.3
20260503042519 62 192 0.0 0.9 0.00 0.03 0.03 83 1012.2
20260503041517 62 198 0.0 1.7 0.00 0.03 0.03 83 1012.3
20260503040517 62 214 0.9 2.6 0.00 0.03 0.03 83 1012.2
20260503035518 63 213 0.0 1.7 0.00 0.03 0.03 81 1012.3
20260503034518 63 154 0.0 0.9 0.00 0.03 0.03 80 1012.3
20260503033518 63 183 0.0 0.9 0.00 0.03 0.03 79 1012.1
20260503032517 64 216 0.0 0.9 0.00 0.03 0.03 79 1012.0
20260503031517 64 220 0.0 1.7 0.00 0.03 0.03 78 1011.9
20260503030518 64 10 0.0 1.7 0.00 0.03 0.03 77 1011.8
20260503025538 64 238 0.0 1.7 0.00 0.03 0.03 77 1011.8
20260503024517 64 231 0.0 1.7 0.00 0.03 0.03 77 1012.0
20260503023518 64 226 0.0 1.7 0.00 0.03 0.03 76 1012.0
20260503022519 65 152 1.7 7.0 0.00 0.03 0.03 75 1012.4
20260503021519 65 162 2.6 6.1 0.00 0.03 0.03 75 1012.5
20260503020519 65 158 2.6 6.1 0.00 0.03 0.03 75 1012.6
20260503015520 66 124 3.5 7.8 0.00 0.03 0.03 76 1012.6
20260503014516 66 214 1.7 2.6 0.00 0.03 0.03 76 1012.0
20260503013517 67 197 0.9 2.6 0.00 0.03 0.03 75 1011.8
20260503012516 68 173 1.7 3.5 0.00 0.03 0.03 73 1011.7
20260503011518 68 130 1.7 5.2 0.00 0.03 0.03 68 1011.7
20260503010518 69 223 0.9 3.5 0.00 0.03 0.03 67 1011.7
20260503005518 69 237 0.0 1.7 0.00 0.03 0.03 67 1011.6
20260503004518 69 229 0.0 1.7 0.00 0.03 0.03 66 1011.6
20260503003518 69 327 0.0 0.9 0.00 0.03 0.03 66 1011.5
20260503002537 69 216 0.0 0.9 0.00 0.03 0.03 66 1011.5
20260503001517 69 211 0.0 1.7 0.00 0.03 0.03 66 1011.5
20260503000518 70 318 0.0 0.9 0.00 0.03 0.03 65 1011.6
20260502235518 70 230 0.0 1.7 0.00 0.03 0.03 64 1011.7
20260502234519 70 351 0.0 0.9 0.00 0.03 0.03 63 1011.8
20260502233518 70 348 0.0 1.7 0.00 0.03 0.03 65 1012.0
20260502232518 70 226 0.9 3.5 0.00 0.03 0.03 64 1012.1
20260502231519 70 314 0.0 1.7 0.00 0.03 0.03 65 1012.3
20260502230519 70 338 0.9 1.7 0.00 0.03 0.03 65 1012.4
20260502225519 69 250 0.0 1.7 0.00 0.03 0.03 64 1012.5
20260502224520 70 345 0.9 3.5 0.00 0.03 0.03 63 1012.7
20260502223520 69 239 0.0 1.7 0.00 0.03 0.03 64 1012.8
20260502222517 68 319 0.9 2.6 0.00 0.03 0.03 66 1013.0
20260502221517 69 341 0.9 2.6 0.00 0.03 0.03 65 1013.1
20260502220518 67 237 0.0 2.6 0.00 0.03 0.03 67 1013.2
20260502215517 67 325 0.9 3.5 0.00 0.03 0.03 67 1013.3
20260502214519 66 290 0.9 2.6 0.00 0.03 0.03 68 1013.6
20260502213518 65 87 1.7 6.1 0.00 0.03 0.03 70 1013.7
20260502212600 64 231 0.9 2.6 0.00 0.03 0.03 72 1013.7
20260502211519 64 341 0.9 2.6 0.00 0.03 0.03 72 1013.9
20260502210517 64 328 0.9 2.6 0.00 0.03 0.03 71 1014.1
20260502205519 64 43 0.0 1.7 0.00 0.03 0.03 72 1014.2
20260502204538 63 353 0.9 2.6 0.00 0.03 0.03 73 1014.4
20260502203559 62 162 0.9 3.5 0.00 0.03 0.03 74 1014.6
20260502202538 62 13 0.9 2.6 0.00 0.03 0.03 75 1014.7
20260502201518 61 204 0.9 2.6 0.00 0.03 0.03 76 1014.9
20260502200538 60 116 0.9 3.5 0.00 0.03 0.03 79 1015.0
20260502195517 59 134 0.0 2.6 0.00 0.03 0.03 79 1015.1
20260502194537 59 243 0.9 3.5 0.00 0.03 0.03 81 1015.1
20260502193537 58 143 0.0 1.7 0.00 0.03 0.03 82 1015.2
20260502192516 57 199 0.9 3.5 0.00 0.03 0.03 85 1015.3
20260502191518 56 333 0.9 5.2 0.02 0.03 0.03 86 1015.3
20260502190517 56 342 0.0 1.7 0.02 0.03 0.03 87 1015.7
20260502185518 55 147 0.0 1.7 0.02 0.03 0.03 89 1015.9